Overview Statistics Trail Chart Weather Telemetry Raw packets
 

This is the latest recevied weather packets stored in our database for station/object KQ4WWD. If no packets are shown the sender has not sent any weather packets the latest 10 day(s).

<< 51 52 53 54 55 56 57 >>
Time Temp. Humidity Pressure Rain* Wind** Luminosity Snow
1788268573 25.56° C 95% 1017.1 hPa 0 mm - 442 W/m² -
1788268268 25.56° C 95% 1017 hPa 0 mm - 246 W/m² -
1788267963 25.56° C 96% 1017.2 hPa 0 mm - 172 W/m² -
1788267661 25.56° C 96% 1017.1 hPa 0 mm - 131 W/m² -
1788267360 25° C 96% 1017.1 hPa 0 mm - 154 W/m² -
1788267055 25.56° C 96% 1017.1 hPa 0 mm - 144 W/m² -
1788266750 25° C 96% 1016.9 hPa 0 mm - 124 W/m² -
1788266466 25° C 96% 1016.7 hPa 0 mm - 108 W/m² -
1788266140 25° C 96% 1017 hPa 0 mm - 122 W/m² -
1788265839 25° C 96% 1016.8 hPa 0 mm - 78 W/m² -
1788265538 25° C 96% 1016.9 hPa 0 mm - 75 W/m² -
1788265238 25° C 96% 1016.7 hPa 0 mm - 62 W/m² -
1788264938 25° C 96% 1016.8 hPa 0 mm - 62 W/m² -
1788264633 25° C 96% 1016.5 hPa 0 mm - 50 W/m² -
1788264333 25° C 96% 1016.7 hPa 0 mm - 60 W/m² -
1788264029 25° C 96% 1016.9 hPa 0 mm - 41 W/m² -
1788263724 25° C 96% 1016.7 hPa 0 mm - 36 W/m² -
1788263421 25° C 96% 1016.7 hPa 0 mm - 20 W/m² -
1788263116 25° C 95% 1016.8 hPa 0 mm - 12 W/m² -
1788262815 25° C 95% 1016.5 hPa 0 mm - 11 W/m² -
1788262513 25° C 95% 1016.6 hPa 0 mm - 9 W/m² -
1788262219 25° C 95% 1016.4 hPa 0 mm - 10 W/m² -
1788261904 25° C 95% 1016.1 hPa 0 mm - 6 W/m² -
1788261599 25° C 95% 1016.5 hPa 0 mm - 3 W/m² -
1788261297 25° C 95% 1016.2 hPa 0 mm - 2 W/m² -

* Rain latest hour (hover to see other rain measurements)
** Current wind speed in m/s (hover to see current wind gust speed)